Mittivakkat Sermersua

KL  EN  DA
ASIAQ
Weather Now GREENLAND SURVEY
Updated [WGT/WGST] Temperature [°C] Wind [m/s] Air pressure [hPa] Relative humidity [%] Precipitation [mm]
Present Wind chill Speed Max
24.09 02:00-6,00,02,5 ⇐n/a96445n/a
24.09 01:00-8,30,03,5 ⇐n/a96452n/a
24.09 00:00-7,80,02,6 ⇐n/a96453n/a
23.09 23:00-6,40,02,9 ⇐n/a96450n/a
23.09 22:00-7,00,02,6 ⇐n/a96349n/a
23.09 21:00-7,40,02,6 ⇐n/a96352n/a
23.09 20:00-7,60,02,6 ⇐n/a96352n/a
23.09 19:00-7,10,02,8 ⇐n/a96350n/a
23.09 18:00-6,30,03,0 ⇐n/a96251n/a
23.09 17:00-6,40,02,5 ⇐n/a96254n/a
23.09 16:00-5,50,02,3 ⇐n/a96154n/a
23.09 15:00-4,60,01,7 ⇐n/a96152n/a
23.09 14:00-4,30,01,4 ⇐n/a96153n/a
23.09 13:00-5,00,02,1 ⇐n/a96157n/a
23.09 12:00-5,90,02,8 ⇙n/a96061n/a
23.09 11:00-6,90,01,9 ⇐n/a96065n/a
23.09 10:00-7,00,02,0 ⇐n/a96071n/a
23.09 09:00-7,70,02,0 ⇙n/a95979n/a
23.09 08:00-8,30,01,9 ⇙n/a95981n/a
23.09 07:00-9,00,02,0 ⇙n/a95886n/a
23.09 06:00-9,00,04,3 ⇓n/a95890n/a
23.09 05:00-8,40,04,5 ⇓n/a95778n/a
23.09 04:00-8,20,03,8 ⇓n/a95768n/a
23.09 03:00-8,20,02,7 ⇓n/a95776n/a
23.09 02:00-7,80,02,7 ⇙n/a95685n/a
Position: (65.6922,-37.828)

[Back]